Home > Time Zones > World Clock > Weather > Iran > Gorgan > Past weeks

Flag for Iran Weather past 2 weeks in Gorgan, Iran

Now
97 °F

Partly sunny.


Feels Like: 103 °F
Forecast: 74 / 110 °F
Wind: 18 mph from West

Location: Gorgan Airport

Current Time: May 30, 2015 at 4:04:37 PM

Latest Report: May 30, 2015 at 3:30 PM


Visibility: 4 mi

Pressure: 29.77 "Hg

Humidity: 42%

Dew point: 70 °F

Location of GorganLocation

Historic Weather in Gorgan — Graph

°F

Gorgan temperature yesterday

Maximum temperature yesterday: 108 °F (at 3:30 PM)
Minimum temperature yesterday: 66 °F (at 3:30 AM)
Average temperature yesterday: 90 °F

Past Weeks' High & Low Weather Summary

 TemperatureHumidityPressure
High115 °F (May 30, 12:30 PM)94% (May 16, 4:30 AM)30.15 "Hg (May 16, 4:30 AM)
Low50 °F (May 17, 5:30 AM)7% (May 29, 4:30 PM)29.62 "Hg (May 28, 4:30 PM)
Average77 °F58%29.94 "Hg
* Reported May 15 2:30 PM — May 30 2:30 PM, Gorgan, Weather by CustomWeather, © 2015

Note: Actual official high and low records may vary slightly from our data, if they occured in-between our weather recording intervals... More about our weather records

Advertising

Gorgan weather history for previous 24 hours

 ConditionsComfort  
Time TempWeatherWind HumidityBarometerVisibility
2:30 PM
Sat, May 30
99 °FPartly sunny.35 mph37%29.74 "Hg4 mi
1:30 PM115 °FPartly sunny.25 mph10%29.68 "Hg4 mi
12:30 PM115 °FPartly sunny.21 mph10%29.68 "Hg4 mi
11:30 AM111 °FClear.7 mph11%29.68 "Hg4 mi
10:30 AM108 °FClear.7 mph16%29.68 "Hg4 mi
9:30 AM99 °FClear.5 mph25%29.71 "Hg4 mi
8:30 AM90 °FClear.7 mph33%29.71 "Hg4 mi
7:30 AM81 °FClear.No wind45%29.71 "Hg4 mi
6:30 AM72 °FPassing clouds.No wind47%29.68 "Hg4 mi
5:30 AM72 °FPassing clouds.9 mph47%29.68 "Hg4 mi
3:30 AM73 °FClear.12 mph47%29.71 "Hg10 mi
2:30 AM73 °FClear.No wind47%29.71 "Hg10 mi
1:30 AM79 °FClear.No wind37%29.71 "Hg10 mi
12:30 AM79 °FPassing clouds.12 mph45%29.74 "HgN/A
11:30 PM
Fri, May 29
82 °FPassing clouds.12 mph40%29.74 "HgN/A
10:30 PM82 °FPartly cloudy.7 mph45%29.77 "HgN/A
10:00 PM82 °FPartly cloudy.12 mph45%29.77 "Hg4 mi
9:30 PM86 °FBroken clouds.12 mph43%29.77 "Hg3 mi
9:00 PM86 °FBroken clouds.16 mph46%29.77 "Hg2 mi
8:30 PM90 °FBroken clouds.16 mph29%29.74 "Hg2 mi
8:00 PM95 °FPartly sunny.9 mph22%29.68 "Hg2 mi
7:30 PM95 °FPartly sunny.7 mph22%29.65 "Hg2 mi
6:30 PM102 °FClear.5 mph11%29.62 "Hg4 mi
5:30 PM106 °FPassing clouds.12 mph9%29.62 "HgN/A
4:30 PM108 °FPassing clouds.14 mph7%29.65 "HgN/A
Weather by CustomWeather, © 2015

See weather overviewHow to use our weather pages